Madera Ranchos
DateTemperatureDew Point
09/01 - 06:45 AM51.4°50.2°
09/01 - 06:30 AM50.5°49.1°
09/01 - 06:15 AM51.2°49.7°
09/01 - 06:00 AM51.6°50.1°
09/01 - 05:45 AM51.6°50.2°
09/01 - 05:30 AM51.4°49.8°
09/01 - 05:15 AM51.4°49.6°
09/01 - 05:00 AM52.0°49.9°
09/01 - 04:45 AM52.9°50.4°
09/01 - 04:30 AM53.8°51.0°
09/01 - 04:15 AM54.3°51.3°
09/01 - 04:00 AM54.9°51.3°
09/01 - 03:45 AM55.8°51.7°
09/01 - 03:30 AM56.5°51.7°
09/01 - 03:15 AM57.1°51.9°
09/01 - 03:00 AM57.8°51.9°
09/01 - 02:45 AM58.8°52.0°
09/01 - 02:30 AM59.5°52.1°
09/01 - 02:15 AM60.0°52.2°
09/01 - 02:00 AM60.2°52.6°
09/01 - 01:45 AM60.7°52.8°
09/01 - 01:30 AM61.0°52.9°
09/01 - 01:15 AM61.4°53.0°
09/01 - 01:00 AM61.5°52.9°
09/01 - 12:45 AM62.0°53.1°
09/01 - 12:30 AM62.3°53.1°
09/01 - 12:15 AM62.4°53.0°
09/01 - 12:00 AM62.9°53.3°
08/31 - 11:45 PM63.2°53.5°
08/31 - 11:30 PM63.4°53.6°
08/31 - 11:15 PM63.6°53.9°
08/31 - 11:00 PM63.9°54.1°
08/31 - 10:45 PM63.9°54.2°
08/31 - 10:30 PM64.1°54.2°
08/31 - 10:15 PM64.4°54.1°
08/31 - 10:00 PM65.0°54.0°
08/31 - 09:45 PM65.6°53.9°
08/31 - 09:30 PM66.3°53.8°
08/31 - 09:15 PM67.3°53.8°
08/31 - 09:00 PM68.2°53.7°
08/31 - 08:45 PM68.8°53.3°
08/31 - 08:30 PM70.0°53.2°
08/31 - 08:15 PM71.6°52.1°
08/31 - 08:00 PM72.7°50.5°
08/31 - 07:45 PM74.1°49.6°
08/31 - 07:30 PM75.5°48.9°
08/31 - 07:15 PM76.8°49.2°
08/31 - 07:00 PM77.6°49.6°
08/31 - 06:45 PM78.9°50.0°
08/31 - 06:30 PM80.6°50.7°
08/31 - 06:15 PM83.1°52.0°
08/31 - 06:00 PM84.9°52.1°
08/31 - 05:45 PM86.5°53.8°
08/31 - 05:30 PM87.0°53.3°
08/31 - 05:15 PM88.5°53.1°
08/31 - 05:00 PM89.1°53.2°
08/31 - 04:45 PM90.2°53.1°
08/31 - 04:30 PM90.0°53.6°
08/31 - 04:15 PM89.1°53.3°
08/31 - 04:00 PM89.7°53.8°
08/31 - 03:45 PM89.9°53.6°
08/31 - 03:30 PM90.6°54.5°
08/31 - 03:15 PM90.6°54.0°
08/31 - 03:00 PM90.7°54.3°
08/31 - 02:45 PM90.0°54.2°
08/31 - 02:30 PM89.3°53.9°
08/31 - 02:15 PM88.7°53.8°
08/31 - 02:00 PM87.5°54.5°
08/31 - 01:45 PM88.0°53.6°
08/31 - 01:30 PM87.6°54.1°
08/31 - 01:15 PM86.5°54.4°
08/31 - 01:00 PM85.7°54.8°
08/31 - 12:45 PM84.5°54.7°
08/31 - 12:30 PM83.7°54.8°
08/31 - 12:15 PM83.3°54.6°
08/31 - 12:00 PM83.1°54.7°
08/31 - 11:45 AM82.4°54.7°
08/31 - 11:30 AM81.6°54.8°
08/31 - 11:15 AM80.3°55.0°
08/31 - 11:00 AM78.8°55.0°
08/31 - 10:45 AM78.3°55.7°
08/31 - 10:30 AM77.1°55.5°
08/31 - 10:15 AM75.5°55.0°
08/31 - 10:00 AM74.5°55.3°
08/31 - 09:45 AM73.2°54.8°
08/31 - 09:30 AM72.6°55.0°
08/31 - 09:15 AM71.2°54.6°
08/31 - 09:00 AM70.3°54.7°
08/31 - 08:45 AM68.4°53.9°
08/31 - 08:30 AM67.1°53.4°
08/31 - 08:15 AM65.7°53.5°
08/31 - 08:00 AM63.6°53.3°
08/31 - 07:45 AM61.7°53.1°
08/31 - 07:30 AM59.8°53.2°
08/31 - 07:15 AM57.5°54.6°
08/31 - 07:00 AM55.5°54.0°
08/31 - 06:45 AM53.8°52.4°
08/31 - 06:30 AM52.9°51.5°
08/31 - 06:15 AM52.9°51.3°
08/31 - 06:00 AM52.7°51.2°
08/31 - 05:45 AM52.5°50.5°
08/31 - 05:30 AM53.0°50.7°
08/31 - 05:15 AM53.8°51.1°
08/31 - 05:00 AM54.6°51.6°
08/31 - 04:45 AM54.8°51.8°
08/31 - 04:30 AM55.0°51.9°
08/31 - 04:15 AM55.3°51.8°
08/31 - 04:00 AM55.2°51.7°
08/31 - 03:45 AM55.6°51.6°
08/31 - 03:30 AM56.2°51.8°
08/31 - 03:15 AM56.5°51.8°
08/31 - 03:00 AM56.8°51.7°
08/31 - 02:45 AM57.3°51.6°
08/31 - 02:30 AM57.6°51.5°
08/31 - 02:15 AM58.0°51.6°
08/31 - 02:00 AM57.7°51.7°
08/31 - 01:45 AM59.3°51.7°
08/31 - 01:30 AM60.7°51.3°
08/31 - 01:15 AM61.6°51.5°
08/31 - 01:00 AM62.2°51.8°
08/31 - 12:45 AM62.4°51.9°
08/31 - 12:30 AM62.6°51.9°
08/31 - 12:15 AM62.5°51.7°
08/31 - 12:00 AM62.8°51.4°
08/30 - 11:45 PM63.7°51.3°
08/30 - 11:30 PM63.8°50.6°
08/30 - 11:15 PM64.0°49.9°
08/30 - 11:00 PM64.7°49.6°
08/30 - 10:45 PM65.5°49.2°
08/30 - 10:30 PM66.3°48.8°
08/30 - 10:15 PM67.3°48.5°
08/30 - 10:00 PM68.3°48.2°
08/30 - 09:45 PM69.3°48.0°
08/30 - 09:30 PM69.8°48.2°
08/30 - 09:15 PM70.8°48.4°
08/30 - 09:00 PM72.3°48.9°
08/30 - 08:45 PM72.9°49.1°
08/30 - 08:30 PM70.5°51.2°
08/30 - 08:15 PM68.5°54.4°
08/30 - 08:00 PM71.4°55.4°
08/30 - 07:45 PM73.3°52.2°
08/30 - 07:30 PM75.3°51.6°
08/30 - 07:15 PM77.6°51.2°
08/30 - 07:00 PM80.6°50.5°
08/30 - 06:45 PM84.0°49.4°
08/30 - 06:30 PM86.0°49.1°
08/30 - 06:15 PM87.4°50.0°
08/30 - 06:00 PM88.7°50.9°
08/30 - 05:45 PM89.5°51.7°
08/30 - 05:30 PM90.2°52.2°
08/30 - 05:15 PM90.8°52.8°
08/30 - 05:00 PM91.3°53.3°
08/30 - 04:45 PM91.3°52.6°
08/30 - 04:30 PM91.4°52.7°
08/30 - 04:15 PM92.3°52.6°
08/30 - 04:00 PM92.1°52.6°
08/30 - 03:45 PM92.3°52.2°
08/30 - 03:30 PM92.8°52.0°
08/30 - 03:15 PM92.6°52.0°
08/30 - 03:00 PM92.0°52.0°
08/30 - 02:45 PM92.2°52.6°
08/30 - 02:30 PM91.8°52.9°
08/30 - 02:15 PM90.4°52.2°
08/30 - 02:00 PM89.8°52.8°
08/30 - 01:45 PM89.2°52.9°
08/30 - 01:30 PM89.6°53.3°
08/30 - 01:15 PM88.4°53.0°
08/30 - 01:00 PM87.3°54.0°
08/30 - 12:45 PM85.9°53.1°
08/30 - 12:30 PM85.5°53.0°
08/30 - 12:15 PM84.5°53.7°
08/30 - 12:00 PM84.1°53.7°
08/30 - 11:45 AM82.3°52.5°
08/30 - 11:30 AM82.1°52.7°
08/30 - 11:15 AM81.1°52.4°
08/30 - 11:00 AM79.8°52.0°
08/30 - 10:45 AM78.7°51.4°
08/30 - 10:30 AM78.2°51.1°
08/30 - 10:15 AM77.6°50.1°
08/30 - 10:00 AM77.6°49.5°
08/30 - 09:45 AM75.8°50.1°
08/30 - 09:30 AM75.1°49.6°
08/30 - 09:15 AM73.7°48.6°
08/30 - 09:00 AM72.7°48.8°
08/30 - 08:45 AM71.2°48.7°
08/30 - 08:30 AM70.1°49.7°
08/30 - 08:15 AM68.7°50.9°
08/30 - 08:00 AM67.1°50.8°